Multibeam Report for AT21-02


Ship Name: Atlantis
Chief Scientist: Van Dover, Cindy
William & Mary
Source Organization: Rolling Deck to Repository
Start Date: 2012-06-01
End Date: 2012-06-17


View ISO Metadata

Visit the full NCEI Bathymetry Viewer


Multibeam Bathymetry

Cruise Details

Project: Connectivity in Western Atlantic Seep Populations
Instrument: Kongsberg EM122

Data Quality

Number of Files: 260
Number of Records: 88537
BATHYMETRY DATA Quantity Percentage
Number of Beams 38176704 100%
Number of Good Beams 33627242 88.08%
Number of Zero Beams 0 0%
Number of Flagged Beams 4549462 11.92%
AMPLITUDE DATA Quantity Percentage
Number of Beams 38176704 100%
Number of Good Beams 33627242 88.08%
Number of Zero Beams 0 0%
Number of Flagged Beams 4549462 11.92%
SIDESCAN DATA Quantity Percentage
Number of Pixels 90492928 100%
Number of Good Pixels 67972575 75.11%
Number of Zero Pixels 0 0%
Number of Flagged Pixels 22520353 24.89%

Navigation Totals

Total Time: 149.5068 hours
Total Track Length: 1561.7651 km
Average Speed: 10.446 km/hr (5.6404 knots)

Cruise Bounds

Northern Extent: 13.987645
Southern Extent: 11.58602
Western Extent: -59.603165
Eastern Extent: -57.364002

Limits

Minimum Sonar Depth 3.2399 Maximum Sonar Depth 8.1717
Minimum Altitude 264.7995 Maximum Altitude 5814.2031
Minimum Depth 0 Maximum Depth 6301.792
Minimum Amplitude 0 Maximum Amplitude 11.5
Minimum Sidescan 0 Maximum Sidescan 26.48

File Information

Full Resolution Bathymetry as collected (raw): 257

Files File Size Description
0000_20120601_231541_Atlantis.all.mb58.gz 3.34MB Kongsberg multibeam vendor format
0001_20120601_232357_Atlantis.all.mb58.gz 23.27MB Kongsberg multibeam vendor format
0002_20120602_002349_Atlantis.all.mb58.gz 3.75MB Kongsberg multibeam vendor format
0003_20120602_003335_Atlantis.all.mb58.gz 20.92MB Kongsberg multibeam vendor format
0004_20120602_013059_Atlantis.all.mb58.gz 16.63MB Kongsberg multibeam vendor format
0005_20120602_021848_Atlantis.all.mb58.gz 4.83MB Kongsberg multibeam vendor format
0006_20120602_023311_Atlantis.all.mb58.gz 0.57MB Kongsberg multibeam vendor format
0007_20120602_023453_Atlantis.all.mb58.gz 3.25MB Kongsberg multibeam vendor format
0008_20120602_024437_Atlantis.all.mb58.gz 10.12MB Kongsberg multibeam vendor format
0009_20120602_031449_Atlantis.all.mb58.gz 10.92MB Kongsberg multibeam vendor format
0010_20120602_034723_Atlantis.all.mb58.gz 19.56MB Kongsberg multibeam vendor format
0011_20120602_044726_Atlantis.all.mb58.gz 5.01MB Kongsberg multibeam vendor format
0012_20120602_050557_Atlantis.all.mb58.gz 19.11MB Kongsberg multibeam vendor format
0013_20120602_060552_Atlantis.all.mb58.gz 18.85MB Kongsberg multibeam vendor format
0014_20120602_070600_Atlantis.all.mb58.gz 18.90MB Kongsberg multibeam vendor format
0015_20120602_080603_Atlantis.all.mb58.gz 18.73MB Kongsberg multibeam vendor format
0016_20120602_090552_Atlantis.all.mb58.gz 19.03MB Kongsberg multibeam vendor format
0017_20120602_100557_Atlantis.all.mb58.gz 18.72MB Kongsberg multibeam vendor format
0018_20120602_110609_Atlantis.all.mb58.gz 12.24MB Kongsberg multibeam vendor format
0019_20120603_002000_Atlantis.all.mb58.gz 19.07MB Kongsberg multibeam vendor format
0020_20120603_012009_Atlantis.all.mb58.gz 18.76MB Kongsberg multibeam vendor format
0021_20120603_021956_Atlantis.all.mb58.gz 18.92MB Kongsberg multibeam vendor format
0022_20120603_031956_Atlantis.all.mb58.gz 18.88MB Kongsberg multibeam vendor format
0023_20120603_041957_Atlantis.all.mb58.gz 18.58MB Kongsberg multibeam vendor format
0024_20120603_051954_Atlantis.all.mb58.gz 18.41MB Kongsberg multibeam vendor format
0025_20120603_062002_Atlantis.all.mb58.gz 18.56MB Kongsberg multibeam vendor format
0026_20120603_072003_Atlantis.all.mb58.gz 18.57MB Kongsberg multibeam vendor format
0027_20120603_081958_Atlantis.all.mb58.gz 18.53MB Kongsberg multibeam vendor format
0028_20120603_092009_Atlantis.all.mb58.gz 18.35MB Kongsberg multibeam vendor format
0029_20120603_101907_Atlantis.all.mb58.gz 9.73MB Kongsberg multibeam vendor format
0030_20120603_105137_Atlantis.all.mb58.gz 106.3KB Kongsberg multibeam vendor format
0031_20120603_105156_Atlantis.all.mb58.gz 111.2KB Kongsberg multibeam vendor format
0032_20120603_105216_Atlantis.all.mb58.gz 20.14MB Kongsberg multibeam vendor format
0033_20120603_115213_Atlantis.all.mb58.gz 3.44MB Kongsberg multibeam vendor format
0035_20120604_025316_Atlantis.all.mb58.gz 20.18MB Kongsberg multibeam vendor format
0036_20120604_035301_Atlantis.all.mb58.gz 8.88MB Kongsberg multibeam vendor format
0037_20120604_041858_Atlantis.all.mb58.gz 1.86MB Kongsberg multibeam vendor format
0038_20120604_042437_Atlantis.all.mb58.gz 14.60MB Kongsberg multibeam vendor format
0039_20120604_050848_Atlantis.all.mb58.gz 4.31MB Kongsberg multibeam vendor format
0040_20120604_052223_Atlantis.all.mb58.gz 11.61MB Kongsberg multibeam vendor format
0041_20120604_055907_Atlantis.all.mb58.gz 14.77MB Kongsberg multibeam vendor format
0042_20120604_064554_Atlantis.all.mb58.gz 18.85MB Kongsberg multibeam vendor format
0043_20120604_074556_Atlantis.all.mb58.gz 3.84MB Kongsberg multibeam vendor format
0044_20120604_075812_Atlantis.all.mb58.gz 0.74MB Kongsberg multibeam vendor format
0045_20120604_080034_Atlantis.all.mb58.gz 16.00MB Kongsberg multibeam vendor format
0046_20120604_085104_Atlantis.all.mb58.gz 8.79MB Kongsberg multibeam vendor format
0047_20120604_091859_Atlantis.all.mb58.gz 4.67MB Kongsberg multibeam vendor format
0048_20120604_093329_Atlantis.all.mb58.gz 4.87MB Kongsberg multibeam vendor format
0049_20120604_094827_Atlantis.all.mb58.gz 211.5KB Kongsberg multibeam vendor format
0050_20120605_001059_Atlantis.all.mb58.gz 17.81MB Kongsberg multibeam vendor format
0051_20120605_011103_Atlantis.all.mb58.gz 18.41MB Kongsberg multibeam vendor format
0052_20120605_021109_Atlantis.all.mb58.gz 18.09MB Kongsberg multibeam vendor format
0053_20120605_031105_Atlantis.all.mb58.gz 18.10MB Kongsberg multibeam vendor format
0054_20120605_041059_Atlantis.all.mb58.gz 18.21MB Kongsberg multibeam vendor format
0055_20120605_051104_Atlantis.all.mb58.gz 17.95MB Kongsberg multibeam vendor format
0056_20120605_061058_Atlantis.all.mb58.gz 17.71MB Kongsberg multibeam vendor format
0057_20120605_071112_Atlantis.all.mb58.gz 17.62MB Kongsberg multibeam vendor format
0058_20120605_081100_Atlantis.all.mb58.gz 17.69MB Kongsberg multibeam vendor format
0059_20120605_091112_Atlantis.all.mb58.gz 17.40MB Kongsberg multibeam vendor format
0060_20120605_101102_Atlantis.all.mb58.gz 18.13MB Kongsberg multibeam vendor format
0061_20120605_111057_Atlantis.all.mb58.gz 6.14MB Kongsberg multibeam vendor format
0062_20120606_004028_Atlantis.all.mb58.gz 20.29MB Kongsberg multibeam vendor format
0063_20120606_014031_Atlantis.all.mb58.gz 19.81MB Kongsberg multibeam vendor format
0064_20120606_024035_Atlantis.all.mb58.gz 19.11MB Kongsberg multibeam vendor format
0065_20120606_034029_Atlantis.all.mb58.gz 19.02MB Kongsberg multibeam vendor format
0066_20120606_044037_Atlantis.all.mb58.gz 19.11MB Kongsberg multibeam vendor format
0067_20120606_054038_Atlantis.all.mb58.gz 18.87MB Kongsberg multibeam vendor format
0068_20120606_064025_Atlantis.all.mb58.gz 18.90MB Kongsberg multibeam vendor format
0069_20120606_074030_Atlantis.all.mb58.gz 18.87MB Kongsberg multibeam vendor format
0070_20120606_084043_Atlantis.all.mb58.gz 18.85MB Kongsberg multibeam vendor format
0071_20120606_094026_Atlantis.all.mb58.gz 19.05MB Kongsberg multibeam vendor format
0072_20120606_104035_Atlantis.all.mb58.gz 18.96MB Kongsberg multibeam vendor format
0073_20120606_114032_Atlantis.all.mb58.gz 18.98MB Kongsberg multibeam vendor format
0074_20120606_124035_Atlantis.all.mb58.gz 1.66MB Kongsberg multibeam vendor format
0076_20120606_151422_Atlantis.all.mb58.gz 21.21MB Kongsberg multibeam vendor format
0077_20120606_161414_Atlantis.all.mb58.gz 22.14MB Kongsberg multibeam vendor format
0078_20120606_171421_Atlantis.all.mb58.gz 23.57MB Kongsberg multibeam vendor format
0079_20120606_181417_Atlantis.all.mb58.gz 23.23MB Kongsberg multibeam vendor format
0080_20120606_191420_Atlantis.all.mb58.gz 24.93MB Kongsberg multibeam vendor format
0081_20120606_201416_Atlantis.all.mb58.gz 8.70MB Kongsberg multibeam vendor format
0082_20120606_203428_Atlantis.all.mb58.gz 1.98MB Kongsberg multibeam vendor format
0083_20120606_203853_Atlantis.all.mb58.gz 22.95MB Kongsberg multibeam vendor format
0084_20120606_213010_Atlantis.all.mb58.gz 18.21MB Kongsberg multibeam vendor format
0085_20120606_220026_Atlantis.all.mb58.gz 17.91MB Kongsberg multibeam vendor format
0086_20120606_223011_Atlantis.all.mb58.gz 1.35MB Kongsberg multibeam vendor format
0087_20120606_223250_Atlantis.all.mb58.gz 1.34MB Kongsberg multibeam vendor format
0088_20120606_223548_Atlantis.all.mb58.gz 13.65MB Kongsberg multibeam vendor format
0089_20120606_230224_Atlantis.all.mb58.gz 2.47MB Kongsberg multibeam vendor format
0090_20120606_230632_Atlantis.all.mb58.gz 3.31MB Kongsberg multibeam vendor format
0091_20120606_231148_Atlantis.all.mb58.gz 13.03MB Kongsberg multibeam vendor format
0092_20120606_233249_Atlantis.all.mb58.gz 27.95MB Kongsberg multibeam vendor format
0093_20120607_001840_Atlantis.all.mb58.gz 6.45MB Kongsberg multibeam vendor format
0094_20120607_002920_Atlantis.all.mb58.gz 16.25MB Kongsberg multibeam vendor format
0095_20120607_005854_Atlantis.all.mb58.gz 2.20MB Kongsberg multibeam vendor format
0096_20120607_010357_Atlantis.all.mb58.gz 1.34MB Kongsberg multibeam vendor format
0097_20120607_010704_Atlantis.all.mb58.gz 12.03MB Kongsberg multibeam vendor format
0098_20120607_013600_Atlantis.all.mb58.gz 384.5KB Kongsberg multibeam vendor format
0099_20120607_013648_Atlantis.all.mb58.gz 2.56MB Kongsberg multibeam vendor format
0100_20120607_014231_Atlantis.all.mb58.gz 14.51MB Kongsberg multibeam vendor format
0101_20120607_021418_Atlantis.all.mb58.gz 15.06MB Kongsberg multibeam vendor format
0102_20120607_024427_Atlantis.all.mb58.gz 18.77MB Kongsberg multibeam vendor format
0103_20120607_031649_Atlantis.all.mb58.gz 8.23MB Kongsberg multibeam vendor format
0104_20120607_033449_Atlantis.all.mb58.gz 1.55MB Kongsberg multibeam vendor format
0105_20120607_033817_Atlantis.all.mb58.gz 11.45MB Kongsberg multibeam vendor format
0106_20120607_040020_Atlantis.all.mb58.gz 6.57MB Kongsberg multibeam vendor format
0107_20120607_041114_Atlantis.all.mb58.gz 3.32MB Kongsberg multibeam vendor format
0108_20120607_041629_Atlantis.all.mb58.gz 17.83MB Kongsberg multibeam vendor format
0109_20120607_044433_Atlantis.all.mb58.gz 18.71MB Kongsberg multibeam vendor format
0110_20120607_051408_Atlantis.all.mb58.gz 19.46MB Kongsberg multibeam vendor format
0111_20120607_054557_Atlantis.all.mb58.gz 11.51MB Kongsberg multibeam vendor format
0112_20120607_060605_Atlantis.all.mb58.gz 1.26MB Kongsberg multibeam vendor format
0113_20120607_060852_Atlantis.all.mb58.gz 1.23MB Kongsberg multibeam vendor format
0114_20120607_061139_Atlantis.all.mb58.gz 13.01MB Kongsberg multibeam vendor format
0115_20120607_064136_Atlantis.all.mb58.gz 30.01MB Kongsberg multibeam vendor format
0116_20120607_074136_Atlantis.all.mb58.gz 37.32MB Kongsberg multibeam vendor format
0117_20120607_084138_Atlantis.all.mb58.gz 33.23MB Kongsberg multibeam vendor format
0118_20120607_093113_Atlantis.all.mb58.gz 38.13MB Kongsberg multibeam vendor format
0119_20120607_103110_Atlantis.all.mb58.gz 43.68MB Kongsberg multibeam vendor format
0120_20120607_221642_Atlantis.all.mb58.gz 42.97MB Kongsberg multibeam vendor format
0121_20120607_231648_Atlantis.all.mb58.gz 46.96MB Kongsberg multibeam vendor format
0122_20120608_001644_Atlantis.all.mb58.gz 44.65MB Kongsberg multibeam vendor format
0123_20120608_011650_Atlantis.all.mb58.gz 36.48MB Kongsberg multibeam vendor format
0124_20120608_021653_Atlantis.all.mb58.gz 28.69MB Kongsberg multibeam vendor format
0125_20120608_031646_Atlantis.all.mb58.gz 24.21MB Kongsberg multibeam vendor format
0126_20120608_041657_Atlantis.all.mb58.gz 20.95MB Kongsberg multibeam vendor format
0127_20120608_051655_Atlantis.all.mb58.gz 21.66MB Kongsberg multibeam vendor format
0128_20120608_061656_Atlantis.all.mb58.gz 20.05MB Kongsberg multibeam vendor format
0129_20120608_071655_Atlantis.all.mb58.gz 18.61MB Kongsberg multibeam vendor format
0130_20120608_081706_Atlantis.all.mb58.gz 17.66MB Kongsberg multibeam vendor format
0131_20120608_091648_Atlantis.all.mb58.gz 18.03MB Kongsberg multibeam vendor format
0132_20120608_101704_Atlantis.all.mb58.gz 17.68MB Kongsberg multibeam vendor format
0133_20120608_111658_Atlantis.all.mb58.gz 427.8KB Kongsberg multibeam vendor format
0134_20120609_001915_Atlantis.all.mb58.gz 17.87MB Kongsberg multibeam vendor format
0135_20120609_011904_Atlantis.all.mb58.gz 18.88MB Kongsberg multibeam vendor format
0136_20120609_021905_Atlantis.all.mb58.gz 15.10MB Kongsberg multibeam vendor format
0136_20120609_031407_Atlantis.all.mb58.gz 18.42MB Kongsberg multibeam vendor format
0137_20120609_041407_Atlantis.all.mb58.gz 18.01MB Kongsberg multibeam vendor format
0138_20120609_051400_Atlantis.all.mb58.gz 18.43MB Kongsberg multibeam vendor format
0139_20120609_061419_Atlantis.all.mb58.gz 17.65MB Kongsberg multibeam vendor format
0140_20120609_071426_Atlantis.all.mb58.gz 16.88MB Kongsberg multibeam vendor format
0141_20120609_081404_Atlantis.all.mb58.gz 17.07MB Kongsberg multibeam vendor format
0142_20120609_091416_Atlantis.all.mb58.gz 17.01MB Kongsberg multibeam vendor format
0143_20120609_101411_Atlantis.all.mb58.gz 11.78MB Kongsberg multibeam vendor format
0144_20120610_050317_Atlantis.all.mb58.gz 2.85MB Kongsberg multibeam vendor format
0145_20120610_051250_Atlantis.all.mb58.gz 10.74MB Kongsberg multibeam vendor format
0146_20120610_054805_Atlantis.all.mb58.gz 7.39MB Kongsberg multibeam vendor format
0147_20120610_061232_Atlantis.all.mb58.gz 1.13MB Kongsberg multibeam vendor format
0148_20120610_061613_Atlantis.all.mb58.gz 0.75MB Kongsberg multibeam vendor format
0149_20120610_061847_Atlantis.all.mb58.gz 0.51MB Kongsberg multibeam vendor format
0150_20120610_062029_Atlantis.all.mb58.gz 475.8KB Kongsberg multibeam vendor format
0151_20120610_062208_Atlantis.all.mb58.gz 8.71MB Kongsberg multibeam vendor format
0152_20120610_065206_Atlantis.all.mb58.gz 6.58MB Kongsberg multibeam vendor format
0153_20120610_071406_Atlantis.all.mb58.gz 1.82MB Kongsberg multibeam vendor format
0154_20120610_072005_Atlantis.all.mb58.gz 7.86MB Kongsberg multibeam vendor format
0155_20120610_074603_Atlantis.all.mb58.gz 8.69MB Kongsberg multibeam vendor format
0156_20120610_081423_Atlantis.all.mb58.gz 5.59MB Kongsberg multibeam vendor format
0157_20120611_172737_Atlantis.all.mb58.gz 14.75MB Kongsberg multibeam vendor format
0158_20120611_181408_Atlantis.all.mb58.gz 10.97MB Kongsberg multibeam vendor format
0159_20120611_184927_Atlantis.all.mb58.gz 5.87MB Kongsberg multibeam vendor format
0160_20120611_190811_Atlantis.all.mb58.gz 6.98MB Kongsberg multibeam vendor format
0161_20120611_192926_Atlantis.all.mb58.gz 9.20MB Kongsberg multibeam vendor format
0162_20120611_195751_Atlantis.all.mb58.gz 5.57MB Kongsberg multibeam vendor format
0163_20120611_201434_Atlantis.all.mb58.gz 14.95MB Kongsberg multibeam vendor format
0164_20120612_033049_Atlantis.all.mb58.gz 294.3KB Kongsberg multibeam vendor format
0165_20120612_065915_Atlantis.all.mb58.gz 21.98MB Kongsberg multibeam vendor format
0166_20120612_073844_Atlantis.all.mb58.gz 36.29MB Kongsberg multibeam vendor format
0167_20120612_083837_Atlantis.all.mb58.gz 37.64MB Kongsberg multibeam vendor format
0168_20120612_093836_Atlantis.all.mb58.gz 30.03MB Kongsberg multibeam vendor format
0169_20120612_102347_Atlantis.all.mb58.gz 25.75MB Kongsberg multibeam vendor format
0170_20120612_110208_Atlantis.all.mb58.gz 11.28MB Kongsberg multibeam vendor format
0171_20120612_111842_Atlantis.all.mb58.gz 10.28MB Kongsberg multibeam vendor format
0172_20120612_113408_Atlantis.all.mb58.gz 5.82MB Kongsberg multibeam vendor format
0173_20120612_114305_Atlantis.all.mb58.gz 12.28MB Kongsberg multibeam vendor format
0174_20120612_120303_Atlantis.all.mb58.gz 16.11MB Kongsberg multibeam vendor format
0175_20120612_122929_Atlantis.all.mb58.gz 18.03MB Kongsberg multibeam vendor format
0176_20120612_125810_Atlantis.all.mb58.gz 2.11MB Kongsberg multibeam vendor format
0177_20120612_130131_Atlantis.all.mb58.gz 1.60MB Kongsberg multibeam vendor format
0178_20120612_130409_Atlantis.all.mb58.gz 11.02MB Kongsberg multibeam vendor format
0179_20120612_132252_Atlantis.all.mb58.gz 1.89MB Kongsberg multibeam vendor format
0180_20120612_132608_Atlantis.all.mb58.gz 19.18MB Kongsberg multibeam vendor format
0181_20120612_135609_Atlantis.all.mb58.gz 22.29MB Kongsberg multibeam vendor format
0182_20120612_142936_Atlantis.all.mb58.gz 210.8KB Kongsberg multibeam vendor format
0183_20120612_142955_Atlantis.all.mb58.gz 0.62MB Kongsberg multibeam vendor format
0184_20120612_143050_Atlantis.all.mb58.gz 81.4KB Kongsberg multibeam vendor format
0185_20120612_231706_Atlantis.all.mb58.gz 15.33MB Kongsberg multibeam vendor format
0186_20120612_233908_Atlantis.all.mb58.gz 0.77MB Kongsberg multibeam vendor format
0187_20120612_234016_Atlantis.all.mb58.gz 2.19MB Kongsberg multibeam vendor format
0188_20120612_234330_Atlantis.all.mb58.gz 6.76MB Kongsberg multibeam vendor format
0189_20120612_235317_Atlantis.all.mb58.gz 14.86MB Kongsberg multibeam vendor format
0190_20120613_001415_Atlantis.all.mb58.gz 21.09MB Kongsberg multibeam vendor format
0191_20120613_004626_Atlantis.all.mb58.gz 5.03MB Kongsberg multibeam vendor format
0192_20120613_005352_Atlantis.all.mb58.gz 1.64MB Kongsberg multibeam vendor format
0193_20120613_005630_Atlantis.all.mb58.gz 15.69MB Kongsberg multibeam vendor format
0194_20120613_012001_Atlantis.all.mb58.gz 2.57MB Kongsberg multibeam vendor format
0195_20120613_012404_Atlantis.all.mb58.gz 20.74MB Kongsberg multibeam vendor format
0196_20120613_015341_Atlantis.all.mb58.gz 25.67MB Kongsberg multibeam vendor format
0197_20120613_022932_Atlantis.all.mb58.gz 9.11MB Kongsberg multibeam vendor format
0198_20120613_024148_Atlantis.all.mb58.gz 8.64MB Kongsberg multibeam vendor format
0199_20120613_025344_Atlantis.all.mb58.gz 12.10MB Kongsberg multibeam vendor format
0200_20120613_031009_Atlantis.all.mb58.gz 41.28MB Kongsberg multibeam vendor format
0201_20120613_041002_Atlantis.all.mb58.gz 42.70MB Kongsberg multibeam vendor format
0202_20120613_051004_Atlantis.all.mb58.gz 39.68MB Kongsberg multibeam vendor format
0203_20120613_061006_Atlantis.all.mb58.gz 40.21MB Kongsberg multibeam vendor format
0204_20120613_071010_Atlantis.all.mb58.gz 40.41MB Kongsberg multibeam vendor format
0205_20120613_081010_Atlantis.all.mb58.gz 3.66MB Kongsberg multibeam vendor format
0206_20120614_014023_Atlantis.all.mb58.gz 39.30MB Kongsberg multibeam vendor format
0207_20120614_024022_Atlantis.all.mb58.gz 38.76MB Kongsberg multibeam vendor format
0208_20120614_034023_Atlantis.all.mb58.gz 40.16MB Kongsberg multibeam vendor format
0209_20120614_044022_Atlantis.all.mb58.gz 39.51MB Kongsberg multibeam vendor format
0210_20120614_054021_Atlantis.all.mb58.gz 38.67MB Kongsberg multibeam vendor format
0211_20120614_064019_Atlantis.all.mb58.gz 38.87MB Kongsberg multibeam vendor format
0212_20120614_074020_Atlantis.all.mb58.gz 2.00MB Kongsberg multibeam vendor format
0213_20120614_074702_Atlantis.all.mb58.gz 38.06MB Kongsberg multibeam vendor format
0214_20120614_084703_Atlantis.all.mb58.gz 38.68MB Kongsberg multibeam vendor format
0215_20120614_094700_Atlantis.all.mb58.gz 41.05MB Kongsberg multibeam vendor format
0216_20120614_104701_Atlantis.all.mb58.gz 24.62MB Kongsberg multibeam vendor format
0217_20120615_002627_Atlantis.all.mb58.gz 21.09MB Kongsberg multibeam vendor format
0218_20120615_005646_Atlantis.all.mb58.gz 14.78MB Kongsberg multibeam vendor format
0219_20120615_011914_Atlantis.all.mb58.gz 17.52MB Kongsberg multibeam vendor format
0220_20120615_014524_Atlantis.all.mb58.gz 1.60MB Kongsberg multibeam vendor format
0221_20120615_014825_Atlantis.all.mb58.gz 15.87MB Kongsberg multibeam vendor format
0222_20120615_021143_Atlantis.all.mb58.gz 13.37MB Kongsberg multibeam vendor format
0223_20120615_023203_Atlantis.all.mb58.gz 2.02MB Kongsberg multibeam vendor format
0224_20120615_023517_Atlantis.all.mb58.gz 21.50MB Kongsberg multibeam vendor format
0225_20120615_030648_Atlantis.all.mb58.gz 20.83MB Kongsberg multibeam vendor format
0226_20120615_033753_Atlantis.all.mb58.gz 1.80MB Kongsberg multibeam vendor format
0227_20120615_034048_Atlantis.all.mb58.gz 13.34MB Kongsberg multibeam vendor format
0228_20120615_040234_Atlantis.all.mb58.gz 2.15MB Kongsberg multibeam vendor format
0229_20120615_040609_Atlantis.all.mb58.gz 19.41MB Kongsberg multibeam vendor format
0230_20120615_043435_Atlantis.all.mb58.gz 24.12MB Kongsberg multibeam vendor format
0231_20120615_051037_Atlantis.all.mb58.gz 13.23MB Kongsberg multibeam vendor format
0232_20120615_053047_Atlantis.all.mb58.gz 2.93MB Kongsberg multibeam vendor format
0233_20120615_053512_Atlantis.all.mb58.gz 14.13MB Kongsberg multibeam vendor format
0234_20120615_055556_Atlantis.all.mb58.gz 1.98MB Kongsberg multibeam vendor format
0235_20120615_055847_Atlantis.all.mb58.gz 21.37MB Kongsberg multibeam vendor format
0236_20120615_062651_Atlantis.all.mb58.gz 22.89MB Kongsberg multibeam vendor format
0237_20120615_065904_Atlantis.all.mb58.gz 13.88MB Kongsberg multibeam vendor format
0238_20120615_072138_Atlantis.all.mb58.gz 1.68MB Kongsberg multibeam vendor format
0239_20120615_072446_Atlantis.all.mb58.gz 11.41MB Kongsberg multibeam vendor format
0240_20120615_074650_Atlantis.all.mb58.gz 1.29MB Kongsberg multibeam vendor format
0241_20120615_074906_Atlantis.all.mb58.gz 16.46MB Kongsberg multibeam vendor format
0242_20120615_081739_Atlantis.all.mb58.gz 16.67MB Kongsberg multibeam vendor format
0243_20120615_084420_Atlantis.all.mb58.gz 22.59MB Kongsberg multibeam vendor format
0244_20120615_091642_Atlantis.all.mb58.gz 104.6KB Kongsberg multibeam vendor format
0245_20120616_222827_Atlantis.all.mb58.gz 38.07MB Kongsberg multibeam vendor format
0246_20120616_232827_Atlantis.all.mb58.gz 36.16MB Kongsberg multibeam vendor format
0247_20120617_002826_Atlantis.all.mb58.gz 19.22MB Kongsberg multibeam vendor format
0248_20120617_024132_Atlantis.all.mb58.gz 36.45MB Kongsberg multibeam vendor format
0249_20120617_034130_Atlantis.all.mb58.gz 35.59MB Kongsberg multibeam vendor format
0250_20120617_044128_Atlantis.all.mb58.gz 39.97MB Kongsberg multibeam vendor format
0251_20120617_054127_Atlantis.all.mb58.gz 9.79MB Kongsberg multibeam vendor format
0252_20120617_064706_Atlantis.all.mb58.gz 41.55MB Kongsberg multibeam vendor format
0253_20120617_074704_Atlantis.all.mb58.gz 39.64MB Kongsberg multibeam vendor format
0254_20120617_084706_Atlantis.all.mb58.gz 39.24MB Kongsberg multibeam vendor format
0255_20120617_094709_Atlantis.all.mb58.gz 65.93MB Kongsberg multibeam vendor format
0256_20120617_104706_Atlantis.all.mb58.gz 58.50MB Kongsberg multibeam vendor format
9999.all.mb58.gz 110.5KB Kongsberg multibeam vendor format

Metadata Files: 1

Files File Size Description
AT21-02_Multibeam.xml NGDC created ISO metadata

Ancillary Files: 1

Files File Size Description
xbt.tar.gz 227.4KB Expendable Bathythermograph (XBT) data

Water Column Sonar Data

Water Column Sonar Data Available: WCSD Map Viewer